Wappingers Falls, NY

2:36 AM EST on December 08, 2016 (GMT -0500)
Dutchess County

Weather History for KPOU - December, 2013

Change the Weather History Date:

Friday, December 13, 2013

  Actual Average Record
Temperature  
Mean Temperature 28 °F 32 °F  
Max Temperature 34 °F 41 °F 61 °F (1984)
Min Temperature 21 °F 23 °F 1 °F (1982)
Degree Days  
Heating Degree Days 37 33  
Month to date heating degree days 411 401  
Since 1 July heating degree days 1654 1679  
Cooling Degree Days 0 0  
Month to date cooling degree days 0 0  
Year to date cooling degree days 829 672  
Moisture  
Dew Point 10 °F    
Average Humidity 51    
Maximum Humidity 71    
Minimum Humidity 43    
Precipitation  
Precipitation 0.00 in 0.12 in 2.74 in (1983)
Month to date precipitation 0.93 1.56  
Year to date precipitation 37.51 44.56  
Sea Level Pressure  
Sea Level Pressure 30.16 in    
Wind  
Wind Speed 9 mph (WSW)    
Max Wind Speed 15 mph    
Max Gust Speed 25 mph    
Visibility 10 miles    
Events      
T = Trace of Precipitation, MM = Missing Value Source: NWS Daily Summary

Daily Weather History Graph

Daily Weather History Graph

Search for Another Location

Airport or City:

Trip Planner

Search our weather history database for the weather conditions in past years. The results will help you decide how hot, cold, wet, or windy it might be!

Date:

Astronomy

Dec. 13, 2013 Rise Set
Actual Time 7:14 AM EST 4:25 PM EST
Civil Twilight 6:42 AM EST 4:57 PM EST
Nautical Twilight 6:07 AM EST 5:32 PM EST
Astronomical Twilight 5:33 AM EST 6:05 PM EST
Moon 2:08 PM EST (12/13) 3:31 AM EST (12/13)
Length of Visible Light 10h 14m
Length of Day
9h 11m
Waxing Gibbous, 88% of the Moon is Illuminated
Dec 13
Waxing Gibbous
Dec 17
Full
Dec 25
Last Quarter
Jan 1
New
Jan 7
First Quarter

Hourly Weather History & Observations

Time (EST) Temp. Windchill Dew Point Humidity Pressure Visibility Wind Dir Wind Speed Gust Speed Precip Events Conditions
12:53 AM 21.9 °F 13.4 °F 6.1 °F 51% 30.09 in 10.0 mi Variable 6.9 mph - N/A   Overcast
1:53 AM 21.9 °F 13.4 °F 6.1 °F 51% 30.08 in 10.0 mi Variable 6.9 mph - N/A   Overcast
2:53 AM 21.9 °F 11.0 °F 6.1 °F 51% 30.07 in 10.0 mi SSW 10.4 mph 17.3 mph N/A   Mostly Cloudy
3:53 AM 21.9 °F 10.4 °F 6.1 °F 51% 30.07 in 10.0 mi SW 11.5 mph 18.4 mph N/A   Scattered Clouds
4:53 AM 23.0 °F 11.1 °F 6.1 °F 48% 30.08 in 10.0 mi SW 12.7 mph 21.9 mph N/A   Overcast
5:53 AM 23.0 °F 11.1 °F 5.0 °F 46% 30.08 in 10.0 mi SW 12.7 mph 19.6 mph N/A   Overcast
6:53 AM 24.1 °F 12.5 °F 6.1 °F 46% 30.09 in 10.0 mi SW 12.7 mph - N/A   Overcast
7:53 AM 24.1 °F 15.2 °F 7.0 °F 48% 30.11 in 10.0 mi SW 8.1 mph - N/A   Overcast
8:53 AM 25.0 °F 15.5 °F 8.1 °F 49% 30.12 in 10.0 mi SW 9.2 mph 18.4 mph N/A   Scattered Clouds
9:53 AM 27.0 °F 18.0 °F 9.0 °F 47% 30.13 in 10.0 mi SW 9.2 mph - N/A   Overcast
10:53 AM 28.0 °F 19.3 °F 10.0 °F 47% 30.12 in 10.0 mi SW 9.2 mph - N/A   Overcast
11:53 AM 32.0 °F 23.0 °F 12.9 °F 45% 30.09 in 10.0 mi WSW 11.5 mph 18.4 mph N/A   Mostly Cloudy
12:53 PM 33.1 °F 23.4 °F 14.0 °F 46% 30.09 in 10.0 mi WSW 13.8 mph 21.9 mph N/A   Scattered Clouds
1:53 PM 33.1 °F 23.0 °F 12.9 °F 43% 30.10 in 10.0 mi WSW 15.0 mph 25.3 mph N/A   Overcast
2:53 PM 33.1 °F 24.4 °F 14.0 °F 46% 30.12 in 10.0 mi WSW 11.5 mph - N/A   Overcast
3:53 PM 32.0 °F 24.8 °F 14.0 °F 48% 30.15 in 10.0 mi West 8.1 mph - N/A   Mostly Cloudy
4:53 PM 30.9 °F - 14.0 °F 50% 30.16 in 10.0 mi Calm Calm - N/A   Partly Cloudy
5:53 PM 28.9 °F 25.2 °F 15.1 °F 56% 30.19 in 10.0 mi West 3.5 mph - N/A   Partly Cloudy
6:53 PM 26.1 °F 20.5 °F 18.0 °F 71% 30.23 in 10.0 mi North 4.6 mph - N/A   Overcast
7:53 PM 27.0 °F 19.5 °F 15.1 °F 61% 30.27 in 10.0 mi NNE 6.9 mph - N/A   Overcast
8:53 PM 25.0 °F 17.1 °F 12.9 °F 60% 30.30 in 10.0 mi NE 6.9 mph - N/A   Overcast
9:53 PM 24.1 °F 14.4 °F 12.0 °F 60% 30.32 in 10.0 mi NE 9.2 mph - N/A   Overcast
10:05 PM 24.8 °F 14.6 °F 10.4 °F 54% 30.33 in 10.0 mi NE 10.4 mph - N/A   Overcast
10:53 PM 24.1 °F 16.0 °F 10.0 °F 55% 30.36 in 10.0 mi NNE 6.9 mph - N/A   Overcast
11:53 PM 23.0 °F 14.7 °F 8.1 °F 53% 30.35 in 10.0 mi NNE 6.9 mph - N/A   Overcast